[[{"header":{"parameterUnit":"m.s-1","parameterCategory":1,"la1":30.2992,"la2":30.254,"lo1":-89.0895,"lo2":-89.0443,"dy":0.0025,"dx":0.0025,"nx":19,"ny":19,"refTime":"2026-03-29T09:00:00:Z","depth":0,"parameterNumber":2,"parameterNumberName":"U-component_of_WINDS"},"data":[0,0,0,-5.4868,-5.4873,-5.5129,-5.513,-5.5446,-5.5449,0,0,0,0,0,0,0,0,0,0,0,-5.4787,-5.4789,-5.4867,-5.4874,-5.5128,-5.513,-5.5446,-5.5449,0,0,0,0,0,0,0,0,0,0,0,-5.4786,-5.4788,-5.4791,-5.4875,-5.5128,-5.513,-5.5445,-5.5256,0,0,0,0,0,0,0,0,0,0,-5.5009,-5.493,-5.4788,-5.4791,-5.4876,-5.5128,-5.513,-5.5247,-5.5268,-5.5326,0,-5.5378,0,-5.5418,-5.5469,-5.5471,0,0,0,-5.4877,-5.4913,-5.4986,-5.4791,-5.4878,-5.5128,-5.5015,-5.5258,-5.5282,-5.5354,-5.5383,-5.5395,-5.5424,-5.5471,-5.5473,-5.58,-5.5801,0,0,-5.4863,-5.483,-5.497,-5.5001,-5.4962,-5.5006,-5.5022,-5.5273,-5.5302,-5.5384,-5.5402,-5.5429,-5.5473,-5.5476,-5.5799,-5.5801,0,0,0,-5.482,-5.482,-5.4888,-5.4988,-5.5035,-5.5014,-5.5032,-5.5291,-5.5316,-5.5406,-5.5433,-5.5475,-5.5479,-5.5798,-5.58,-5.5831,0,0,0,-5.4812,-5.4795,-5.4881,-5.4863,-5.503,-5.5166,-5.5044,-5.5298,-5.5328,-5.5431,-5.5475,-5.5482,-5.5796,-5.5799,-5.5827,-5.5851,0,0,0,-5.4772,-5.479,-5.4825,-5.4861,-5.497,-5.5163,-5.5202,-5.5305,-5.5344,-5.5471,-5.5483,-5.5795,-5.5798,-5.5824,-5.5845,-5.5925,0,0,0,-5.472,-5.4852,-5.4825,-5.4983,-5.4967,-5.5182,-5.5201,-5.5363,-5.5476,-5.5477,-5.5796,-5.5799,-5.5823,-5.5842,-5.5921,-5.5983,-5.6007,0,0,-5.4867,-5.4868,-5.4964,-5.4948,-5.5158,-5.5145,-5.5361,-5.5496,-5.5539,-5.5711,-5.5719,-5.5829,-5.5845,-5.5924,-5.6158,-5.6176,0,0,0,-5.4999,-5.5067,-5.513,-5.5236,-5.5343,-5.5435,-5.5541,-5.5591,-5.5738,-5.5621,-5.5882,-5.5893,-5.594,-5.5971,-5.5987,-5.6028,-5.5813,-5.5813,-5.5813,-5.5158,-5.5206,-5.5366,-5.5444,-5.5547,-5.5655,-5.5742,-5.5827,-5.5847,-5.5908,-5.5957,-5.6094,-5.6129,-5.6141,-5.6183,-5.5998,-5.5998,-5.5998,-5.5998,-5.5375,-5.5477,-5.55,-5.5662,-5.5712,-5.5849,-5.5959,-5.5967,-5.6101,-5.6061,-5.6105,-5.6052,-5.616,-5.6199,-5.6001,-5.6,-5.6,-5.6,-5.6,-5.5481,-5.5538,-5.5597,-5.5754,-5.587,-5.5946,-5.6073,-5.6115,-5.6155,-5.6199,-5.6254,-5.6254,-5.6255,-5.6223,-5.6224,-5.6224,-5.6225,-5.6225,-5.6226,-5.5565,-5.5631,-5.5733,-5.5857,-5.593,-5.6031,-5.6141,-5.6214,-5.6305,-5.6325,-5.6325,-5.6336,-5.6163,-5.6116,-5.6233,-5.6232,-5.6231,-5.623,-5.6229,-5.5761,-5.5723,-5.588,-5.5953,-5.6101,-5.6212,-5.6265,-5.6409,-5.6475,-5.6536,-5.6539,-5.6406,-5.6409,-5.6397,-5.6358,-5.653,-5.653,-5.653,-5.653,-5.5847,-5.5854,-5.6022,-5.6135,-5.6251,-5.6315,-5.6489,-5.6576,-5.666,-5.6704,-5.6686,-5.664,-5.6626,-5.6638,-5.662,-5.6584,-5.681,-5.6811,-5.6811,-5.5968,-5.5988,-5.6127,-5.6209,-5.6328,-5.6429,-5.6594,-5.6722,-5.681,-5.6823,-5.6738,-5.6726,-5.6652,-5.6626,-5.6633,-5.6605,-5.654,0,0]},{"header":{"parameterUnit":"m.s-1","parameterCategory":1,"la1":30.2992,"la2":30.254,"lo1":-89.0895,"lo2":-89.0443,"dy":0.0025,"dx":0.0025,"nx":19,"ny":19,"refTime":"2026-03-29T09:00:00:Z","depth":0,"parameterNumber":3,"parameterNumberName":"V-component_of_WINDS"},"data":[0,0,0,3.4572,3.4575,3.4728,3.4728,3.4903,3.4905,0,0,0,0,0,0,0,0,0,0,0,3.4517,3.4518,3.4572,3.4576,3.4727,3.4728,3.4903,3.4905,0,0,0,0,0,0,0,0,0,0,0,3.4517,3.4518,3.4519,3.4576,3.4727,3.4728,3.4903,3.4794,0,0,0,0,0,0,0,0,0,0,3.465,3.459,3.4518,3.4519,3.4577,3.4727,3.4728,3.4789,3.4801,3.4827,0,3.4849,0,3.488,3.4915,3.4916,0,0,0,3.4582,3.458,3.463,3.4519,3.4578,3.4727,3.4661,3.4796,3.4809,3.4842,3.4851,3.4858,3.4883,3.4916,3.4917,3.5049,3.5049,0,0,3.4574,3.4539,3.4621,3.4638,3.4616,3.4656,3.4665,3.4804,3.4811,3.4852,3.4863,3.4885,3.4918,3.4919,3.5048,3.5049,0,0,0,3.4545,3.4532,3.458,3.4631,3.466,3.466,3.4671,3.4805,3.4824,3.4865,3.4887,3.4918,3.492,3.5048,3.5049,3.503,0,0,0,3.4541,3.4516,3.4576,3.4556,3.4657,3.4735,3.4668,3.4814,3.4831,3.4887,3.4919,3.4922,3.5048,3.5048,3.503,3.5027,0,0,0,3.4511,3.4512,3.4531,3.4553,3.4618,3.4733,3.476,3.4818,3.4844,3.4916,3.4922,3.5048,3.5048,3.503,3.5027,3.5052,0,0,0,3.4468,3.4511,3.453,3.4587,3.4616,3.4722,3.476,3.4839,3.4898,3.4919,3.5048,3.5049,3.503,3.5027,3.5052,3.5067,3.507,0,0,3.4502,3.4514,3.455,3.4572,3.4665,3.4701,3.4791,3.4878,3.4915,3.5002,3.5005,3.503,3.5027,3.5052,3.51,3.5102,0,0,0,3.4549,3.4575,3.4607,3.4664,3.4733,3.4791,3.4868,3.4901,3.4977,3.4953,3.5047,3.5046,3.5062,3.5071,3.5073,3.5089,3.5051,3.5051,3.5051,3.4545,3.4595,3.4658,3.4726,3.478,3.4861,3.4909,3.4966,3.4996,3.5018,3.5044,3.5067,3.5076,3.5078,3.5094,3.5056,3.5056,3.5056,3.5056,3.46,3.4645,3.4689,3.4766,3.4817,3.4882,3.4961,3.4982,3.5049,3.5052,3.5068,3.5067,3.5079,3.5096,3.5055,3.5055,3.5055,3.5055,3.5055,3.4603,3.4633,3.4674,3.4763,3.4825,3.4891,3.4955,3.4998,3.5039,3.5056,3.5088,3.5088,3.5094,3.5068,3.5068,3.5069,3.5069,3.5069,3.5069,3.459,3.4637,3.4686,3.4765,3.4808,3.487,3.4953,3.4996,3.5055,3.5081,3.5082,3.511,3.5072,3.5061,3.507,3.507,3.507,3.507,3.507,3.4626,3.4626,3.4702,3.4746,3.4843,3.4902,3.4958,3.5042,3.5084,3.5114,3.5141,3.5105,3.5119,3.5118,3.5109,3.513,3.513,3.513,3.513,3.4629,3.4641,3.473,3.4797,3.4867,3.4927,3.501,3.5075,3.5142,3.5171,3.5174,3.5167,3.5164,3.5179,3.5177,3.5169,3.5205,3.5205,3.5206,3.4654,3.4676,3.4739,3.4807,3.4887,3.4954,3.5035,3.5108,3.5184,3.5209,3.5194,3.5191,3.518,3.5173,3.5197,3.5192,3.5179,0,0]}]]